CSS (TIANHE-1)
1 48274U 21035A   25288.70459370  .00041669  00000-0  46770-3 0  9999
2 48274  41.4665   9.3553 0003274 248.5442 111.5048 15.61854520254966
TUBIN
1 48900U 21059X   25288.83255060  .00132414  00000-0  79978-3 0  9990
2 48900  97.6739 109.8330 0001875 121.6059 238.5390 15.77245783240121
LEDSAT
1 49069U 21073D   25287.95720868  .11134366  25314-5  40586-3 0  9991
2 49069  97.3489  17.4861 0013151 272.2565  87.7231 16.42992651231488
CUTE
1 49263U 21088D   25288.83802515  .00031680  00000-0  49450-3 0  9993
2 49263  97.4399   9.2997 0007032 121.4122 238.7820 15.53743043224292
TeikyoSat 4
1 49396U 21102B   25288.82400839  .00003262  00000-0  21410-3 0  9990
2 49396  97.3989 322.5861 0013887  58.5122 301.7462 15.08251134215871
Z-Sat
1 49399U 21102E   25288.75980985  .00005621  00000-0  29796-3 0  9996
2 49399  97.3677 326.4505 0018195  24.8493 335.3612 15.15629130216380
KOSEN 1
1 49402U 21102H   25288.81698936  .00010069  00000-0  43908-3 0  9993
2 49402  97.3571 330.9386 0014841 356.4367   3.6762 15.22262968216788
HO-113
1 50466U 21131B   25288.88114551  .00000832  00000-0  27252-3 0  9991
2 50466  98.5073  17.5943 0005253 109.2957 250.8800 14.40991419199927
SNUGLITE 2
1 52899U 22065F   25288.83284931  .00002148  00000-0  42261-3 0  9994
2 52899  98.1876  69.7211 0008604  74.0858 286.1292 14.63589210175248
UmKA 1 (RS40S)
1 57172U 23091G   25288.78461878  .00007971  00000-0  40571-3 0  9995
2 57172  97.5435 343.5201 0012507 247.8245 112.1662 15.17021054126905
CubeBel-2 (EU11S)
1 57175U 23091K   25288.83759127  .00013700  00000-0  60099-3 0  9995
2 57175  97.5435 345.5820 0010078 251.6335 108.3805 15.22041858127043
ENSO
1 58470U 23185J   25286.99676613  .00315332  00000-0  14127-2 0  9997
2 58470  97.3538   7.7888 0004942 287.2111  72.8618 15.83344704104804
SONATE-2
1 59112U 24043Q   25288.80572715  .00030223  00000-0  73072-3 0  9993
2 59112  97.5287  63.0951 0009834  18.3855 341.7745 15.41050641 90047
MO-122
1 60209U 24125G   25288.84485175  .00030636  00000-0  72204-3 0  9994
2 60209  97.2619 139.3489 0017627  39.7859 320.4677 15.41702234 71673
GRBBeta
1 60237U 24128C   25288.65675399  .00005261  00000-0  38129-3 0  9990
2 60237  61.9926 352.6171 0056930  84.3252 276.4327 15.03944198 69454
Curium One
1 60242U 24128H   25288.64808854  .00009319  00000-0  60381-3 0  9992
2 60242  61.9821 348.7916 0056654  80.7960 279.9535 15.07403538 69525
ROBUSTA-3A
1 60243U 24128J   25288.49536278  .00008994  00000-0  59285-3 0  9993
2 60243  61.9896 350.6192 0056426  78.2412 282.5004 15.06816368 69481
CatSat
1 60246U 24125J   25288.76398888  .00032220  00000-0  91362-3 0  9997
2 60246  97.2433 136.9600 0037827 359.2994   0.8191 15.35442824 69610
HYPERVIEW-1G (RS66S)
1 61772U 24199AP  25288.83549600  .00039380  00000-0  91552-3 0  9996
2 61772  97.3302 157.7763 0014036  90.3142 269.9714 15.42123473 96676
AO-123
1 61781U 24199AY  25288.83493535  .00010524  00000-0  35917-3 0  9993
2 61781  97.3329 154.9648 0017037 100.8157 259.5002 15.30372821 96487
ZIMSAT 2
1 61783U 24199BA  25288.89868135  .00093400  00000-0  14070-2 0  9993
2 61783  97.3233 159.8839 0012840  83.8454 276.4262 15.54388291 99973
HADES-R (SO-124)
1 62690U 25009CK  25288.45826327  .00094827  00000-0  21765-2 0  9994
2 62690  97.3976   9.6198 0001610 323.3272  36.7865 15.42356160 41754
HYDRA-T
1 62692U 25009CM  25288.47615867  .00097021  00000-0  21787-2 0  9996
2 62692  97.3974   9.7479 0001746 307.2433  52.8655 15.43002964 41765
JINJUSat 1B
1 63210U 25052A   25288.66403471  .00018332  00000-0  75633-3 0  9996
2 63210  97.4226 181.2884 0002236 198.0831 162.0327 15.24098788 32737
NUSHSAT 1
1 63211U 25052B   25288.82289831  .00020115  00000-0  81318-3 0  9996
2 63211  97.4214 181.5041 0001910 202.0470 158.0685 15.24766153 32769
TEVEL2-4
1 63213U 25052D   25288.80189505  .00019606  00000-0  80438-3 0  9998
2 63213  97.4131 181.1484 0000683 228.3651 131.7528 15.24274448 32758
TEVEL2-5
1 63214U 25052E   25288.80508036  .00019355  00000-0  79535-3 0  9990
2 63214  97.4132 181.1448 0000675 229.2155 130.9024 15.24224245 32752
TEVEL2-6
1 63215U 25052F   25288.81061302  .00018548  00000-0  76334-3 0  9999
2 63215  97.4133 181.1411 0000698 232.8197 127.2977 15.24182229 32756
TEVEL2-1
1 63217U 25052H   25288.44795588  .00019274  00000-0  79986-3 0  9993
2 63217  97.4108 180.6398 0000940 299.0309  61.0834 15.23892100 32693
TEVEL2-3
1 63218U 25052J   25288.64479213  .00019952  00000-0  82732-3 0  9996
2 63218  97.4112 180.8371 0000956 298.2585  61.8555 15.23913375 32726
TEVEL2-2
1 63219U 25052K   25288.64571171  .00019864  00000-0  82405-3 0  9992
2 63219  97.4110 180.8354 0000943 298.3169  61.7973 15.23898313 32728
TEVEL2-9
1 63237U 25052AD  25288.81736383  .00017824  00000-0  76970-3 0  9993
2 63237  97.4172 180.7870 0005284 297.6691  62.4009 15.22548683 32722
TEVEL2-7
1 63238U 25052AE  25288.82634749  .00017696  00000-0  76668-3 0  9999
2 63238  97.4174 180.7802 0005352 297.3839  62.6852 15.22438742 32729
TEVEL2-8
1 63239U 25052AF  25288.83094237  .00018085  00000-0  78407-3 0  9999
2 63239  97.4174 180.7720 0005371 297.7676  62.3015 15.22409852 32721
HYDRA-W
1 63490U 25052BL  25288.54884372  .00058457  00000-0  18583-2 0  9998
2 63490  97.4109 181.9044 0005978 289.3960  70.6636 15.32395545 32787
HADES-ICM (SO-125)
1 63492U 25052BN  25288.74962509  .00053884  00000-0  17710-2 0  9991
2 63492  97.4118 181.9591 0006599 293.9577  66.0973 15.31341933 32808
